CAPE
0 0 0 0 0 0 0 0 0 0 0 0 0 0 0 0 0 0 0 0 12 21 13 14 2 2 1 7 7 11 21 14 3 2 4 11 12 4
0 0 0 0 0 0 0 0 0 0 0 0 0 0 0 0 0 0 0 0 16 16 10 11 2 7 1 3 4 5 6 17 19 13 9 8 14 13
0 0 0 0 0 0 0 0 0 0 0 0 0 0 1 0 0 0 0 0 7 25 23 14 11 0 0 0 1 2 2 2 4 5 4 8 9 7
0 0 0 0 0 0 0 0 0 0 0 0 0 0 0 0 0 0 0 0 0 1 12 15 25 1 0 1 0 0 0 1 0 1 1 3 1 1
0 0 0 0 0 0 0 0 0 4 4 11 0 0 3 1 1 0 0 0 0 0 0 17 2 1 2 1 0 0 0 1 1 1 1 0 0 0
0 0 0 0 0 0 0 0 6 6 1 2 0 0 1 0 3 0 0 0 0 0 4 4 2 4 2 0 0 0 1 2 1 0 0 0 0 0
0 0 0 0 0 0 0 0 0 0 0 0 1 1 1 0 0 1 0 0 0 0 0 0 0 0 0 0 0 0 0 1 0 0 0 0 0 0
0 0 0 0 0 0 0 0 0 0 1 1 1 5 9 0 0 0 0 0 0 0 2 0 1 0 0 0 1 2 2 1 0 0 0 0 0 0
0 0 0 0 0 0 0 1 2 6 9 10 0 0 1 0 0 0 0 0 0 0 1 1 2 2 1 2 2 1 0 1 0 0 0 0 0 0
0 0 0 0 0 0 0 0 0 0 0 0 0 0 5 3 0 0 0 0 0 0 0 0 0 0 0 1 4 1 0 0 0 0 0 0 0 0
0 0 0 0 0 0 0 0 0 0 1 2 2 0 0 0 0 0 0 0 0 0 0 1 0 0 0 0 1 1 0 0 0 0 0 0 0 0
0 0 0 0 0 1 0 0 0 0 0 0 0 0 0 0 3 0 0 0 0 0 0 0 1 0 0 0 0 0 0 0 0 0 0 0 0 0
0 0 0 0 0 3 0 0 0 0 1 0 0 0 0 0 0 0 0 0 0 0 0 0 0 0 0 0 0 0 0 0 0 0 0 0 0 0
0 0 0 0 0 0 0 0 2 0 0 0 0 0 0 0 1 0 0 0 0 0 1 0 0 0 0 0 0 0 0 0 0 0 0 0 0 0
0 0 0 0 0 3 1 3 1 0 0 0 0 0 0 1 1 1 0 0 0 0 0 0 0 0 0 0 0 0 0 0 0 0 0 0 0 0
0 0 0 0 0 0 2 1 0 0 0 0 0 1 1 1 0 0 0 0 0 0 0 0 0 0 0 0 0 0 0 0 0 0 0 0 0 0
0 0 0 0 0 0 0 0 1 1 0 0 0 1 0 0 0 0 0 0 0 0 0 0 0 0 0 0 0 0 0 0 0 0 0 0 0 0
0 0 0 0 0 0 0 0 0 0 0 0 0 1 0 0 0 0 0 0 0 0 0 0 0 0 0 0 0 0 0 0 0 0 0 0 0 0
0 0 0 0 0 0 0 0 0 0 0 0 0 0 0 0 0 0 0 0 0 0 0 0 0 0 0 0 0 0 0 0 0 0 0 0 0 0
0 0 0 0 0 0 0 0 0 0 0 0 0 0 0 0 0 0 0 0 0 0 0 0 0 0 0 0 0 0 0 0 0 0 0 0 0 0
0 0 0 0 0 0 0 0 0 0 0 0 0 0 0 0 0 0 0 0 0 0 0 0 0 0 0 0 0 0 0 0 0 0 0 0 0 0
0 0 0 0 0 0 0 0 0 1 0 0 0 0 0 0 0 0 0 0 0 0 0 0 0 0 0 0 0 0 0 0 0 0 0 0 0 0
0 0 0 0 0 0 0 0 0 0 0 0 0 0 0 0 0 0 0 0 0 0 0 0 0 0 0 0 0 0 0 0 0 0 0 0 0 0
CIN
-0 -0 -0 -0 -0 -0 -0 -0 -0 -0 -0 -0 -0 -0 -0 -0 -0 -0 -0 -0 -18 -3 -9 -6 -9 -1 -0 -0 -0 -0 -0 -0 -1 -0 -0 -1 -5 -2
-0 -0 -0 -0 -0 -0 -0 -0 -0 -0 -0 -0 -0 -0 -0 -0 -0 -0 -0 -26 -16 -8 -11 -17 -5 -1 -2 -10 -7 -1 -0 -0 -0 -0 -0 -0 -0 -0
-0 -0 -0 -0 -0 -0 -0 -0 -0 -0 -0 -0 -0 -1 -0 -0 -1 -0 -0 -0 -34 -6 -6 -4 -3 -5 -0 -0 -3 -0 -2 -0 -0 -0 -1 -0 -0 -1
-0 -0 -0 -0 -0 -0 -0 -0 -0 -0 -11 -14 -0 -0 -0 -0 -0 -0 -0 -0 -0 -0 -8 -1 -0 -4 -0 -0 -0 -0 -0 -0 -0 -0 -0 -0 -0 -0
-0 -0 -0 -0 -0 -0 -0 -0 -0 -17 -20 -10 -0 -0 -13 -17 -18 -0 -0 -0 -0 -0 -3 -1 -4 -0 -0 -0 -0 -0 -0 -0 -0 -0 -0 -0 -0 -0
-0 -0 -0 -0 -0 -0 -0 -0 -12 -10 -4 -7 -0 -0 -2 -0 -7 -2 -0 -0 -0 -0 -4 -0 -0 -0 -0 -0 -0 -0 -0 -0 -0 -0 -0 -0 -0 -0
-0 -0 -0 -0 -0 -0 -0 -0 -0 -25 -25 -13 -0 -1 -1 -0 -0 -0 -0 -0 -0 -0 -0 -0 -0 -0 -0 -0 -0 -0 -0 -0 -0 -0 -0 -0 -0 -0
-0 -0 -0 -0 -0 -0 -0 -0 -0 -0 -12 -0 -0 -0 -1 -1 -0 -0 -0 -0 -0 -0 -0 -0 -0 -0 -0 -0 -0 -0 -0 -0 -0 -0 -0 -0 -0 -0
-0 -0 -0 -0 -0 -0 -0 -0 -10 -5 -2 -1 -0 -0 -0 -7 -0 -0 -0 -0 -0 -0 -0 -0 -0 -0 -0 -0 -0 -0 -0 -0 -0 -0 -0 -0 -0 -0
-0 -0 -0 -0 -0 -0 -0 -0 -0 -0 -0 -0 -0 -2 -4 -8 -0 -0 -0 -0 -0 -0 -0 -0 -0 -0 -0 -0 -0 -0 -0 -0 -0 -0 -0 -0 -0 -0
-0 -0 -0 -0 -0 -0 -0 -0 -0 -0 -0 -0 -0 -0 -0 -0 -0 -0 -0 -0 -0 -0 -0 -0 -0 -0 -0 -0 -1 -0 -0 -0 -0 -0 -0 -0 -0 -0
-0 -0 -0 -0 -0 -0 -0 -0 -0 -0 -0 -0 -0 -0 -0 -0 -0 -0 -0 -0 -0 -0 -0 -0 -0 -0 -0 -0 -0 -0 -0 -0 -0 -0 -0 -0 -0 -0
-0 -0 -0 -0 -0 -0 -0 -0 -0 -0 -0 -0 -0 -0 -0 -0 -0 -0 -0 -0 -0 -0 -0 -0 -0 -0 -0 -0 -0 -0 -0 -0 -0 -0 -0 -0 -0 -0
-0 -0 -0 -0 -2 -0 -0 -0 -0 -0 -0 -0 -0 -0 -0 -0 -0 -0 -0 -0 -0 -0 -0 -0 -0 -0 -0 -0 -0 -0 -0 -0 -0 -0 -0 -0 -0 -0
-0 -0 -0 -0 -3 -1 -0 -0 -0 -0 -0 -0 -0 -0 -0 -0 -0 -0 -0 -0 -0 -0 -0 -0 -0 -0 -0 -0 -0 -0 -0 -0 -0 -0 -0 -0 -0 -0
-0 -0 -0 -0 -0 -0 -0 -0 -0 -0 -0 -0 -0 -0 -0 -0 -0 -0 -0 -0 -0 -0 -0 -0 -0 -0 -0 -0 -0 -0 -0 -0 -0 -0 -0 -0 -0 -0
-0 -0 -0 -0 -0 -0 -0 -0 -0 -0 -0 -0 -0 -0 -0 -0 -0 -0 -0 -0 -0 -0 -0 -0 -0 -0 -0 -0 -0 -0 -0 -0 -0 -0 -0 -0 -0 -0
-0 -0 -0 -0 -0 -0 -0 -0 -0 -0 -0 -0 -0 -0 -0 -0 -0 -0 -0 -0 -0 -0 -0 -0 -0 -0 -0 -0 -0 -0 -0 -0 -0 -0 -0 -0 -0 -0
-0 -0 -0 -0 -0 -0 -0 -0 -0 -0 -0 -0 -0 -0 -0 -0 -0 -0 -0 -0 -0 -0 -0 -0 -0 -0 -0 -0 -0 -0 -0 -0 -0 -0 -0 -0 -0 -0
-0 -0 -0 -0 -0 -0 -0 -0 -0 -0 -0 -0 -0 -0 -0 -0 -0 -0 -0 -0 -0 -0 -0 -0 -0 -0 -0 -0 -0 -0 -0 -0 -0 -0 -0 -0 -0 -0
-0 -0 -0 -0 -0 -0 -0 -0 -0 -0 -0 -0 -0 -0 -0 -0 -0 -0 -0 -0 -0 -0 -0 -0 -0 -0 -0 -0 -0 -0 -0 -0 -0 -0 -0 -0 -0 -0
-0 -0 -0 -0 -0 -0 -0 -0 -0 -0 -0 -0 -0 -0 -0 -0 -0 -0 -0 -0 -0 -0 -0 -0 -0 -0 -0 -0 -0 -0 -0 -0 -0 -0 -0 -0 -0 -0
-0 -0 -0 -0 -0 -0 -0 -0 -0 -0 -0 -0 -0 -0 -0 -0 -0 -0 -0 -0 -0 -0 -0 -0 -0 -0 -0 -0 -0 -0 -0 -0 -0 -0 -0 -0 -0 -0
Wind_Speed
23 23 24 25 27 29 28 27 30 34 33 28 25 21 21 21 22 23 23 22 22 16 15 14 14 15 15 15 15 15 16 17 18 18 19 19 18 17
24 23 24 27 30 27 27 26 25 27 32 26 23 22 20 20 22 23 21 20 19 15 12 12 14 13 13 14 15 16 18 18 17 19 18 18 17 16
24 23 26 30 26 27 27 25 23 23 29 28 24 21 21 20 21 20 19 18 18 16 13 12 11 13 11 12 14 17 18 18 18 17 18 18 17 16
23 24 27 24 26 28 26 24 23 21 25 27 24 20 19 18 18 17 17 17 18 18 15 17 8 8 9 10 12 14 16 17 17 17 17 17 16 16
24 23 24 25 29 26 25 25 23 23 22 25 24 20 20 19 19 19 19 17 17 20 23 17 2 5 6 10 12 14 15 15 15 16 16 16 16 15
26 26 25 27 26 24 24 23 22 22 23 25 25 24 24 21 20 18 16 16 16 20 21 10 1 4 7 10 12 14 15 15 15 15 15 15 16 16
25 25 26 23 23 23 23 22 23 25 26 27 29 27 25 21 19 17 14 11 16 17 10 6 5 7 9 11 12 13 15 15 15 15 15 15 15 15
26 24 24 23 23 23 22 21 22 24 25 25 26 25 23 21 18 15 11 13 15 13 10 9 9 8 10 11 11 12 14 15 15 16 16 17 17 16
22 23 23 22 24 21 20 20 20 20 21 23 22 22 22 20 17 12 11 15 19 10 9 10 9 9 10 9 10 12 14 14 15 16 17 17 17 16
17 19 20 22 21 19 19 19 20 22 23 22 22 23 20 19 14 14 16 14 14 10 11 11 12 11 10 10 10 11 13 14 16 17 17 18 17 15
17 15 16 17 17 14 15 18 20 21 20 21 21 21 21 22 16 14 13 12 16 14 16 14 12 11 12 11 10 11 12 15 16 17 18 18 16 14
13 13 12 13 14 15 15 16 16 17 18 20 20 20 19 18 10 14 10 13 16 14 17 16 9 11 13 13 12 12 14 15 15 17 17 17 15 14
11 11 11 12 14 17 9 13 15 14 16 17 17 17 17 15 16 15 13 11 13 17 13 15 12 11 13 11 13 14 13 14 15 16 17 16 15 13
8 9 12 13 14 17 9 12 12 13 14 15 14 17 15 14 14 12 10 10 13 13 7 12 11 9 10 11 11 11 13 14 14 15 15 15 15 13
7 8 11 13 13 13 9 9 11 12 13 13 13 14 14 11 10 10 7 5 5 8 10 13 10 5 9 10 10 9 10 14 14 14 14 13 13 13
3 9 11 12 10 7 8 9 11 10 11 11 12 11 11 10 8 8 7 7 7 9 10 10 8 8 10 10 11 8 11 13 13 13 13 13 13 13
4 11 10 7 7 7 7 8 9 9 10 10 10 9 9 8 9 8 8 12 12 10 9 9 9 9 10 10 12 9 10 12 13 13 12 11 13 13
7 11 7 5 5 5 6 7 7 8 8 9 9 7 6 7 7 11 12 12 9 8 6 7 8 9 12 15 13 10 11 12 13 12 11 11 12 13
10 8 7 4 5 6 6 5 6 7 7 9 7 5 8 12 13 15 14 12 9 7 8 9 10 11 12 13 15 14 11 12 12 11 11 12 13 15
10 7 6 4 5 6 5 5 5 5 6 8 7 7 10 13 14 15 14 9 6 8 9 12 12 13 13 12 11 12 13 11 11 11 11 14 15 17
9 7 6 5 6 6 5 5 5 5 8 10 10 10 10 10 11 12 8 6 7 9 9 10 13 12 11 12 12 12 12 14 12 11 12 14 13 14
8 7 5 6 7 6 5 5 5 6 8 10 11 11 11 11 10 10 8 5 8 8 9 10 11 11 13 14 11 12 12 14 15 15 13 13 14 15
7 7 6 6 7 5 5 4 4 6 10 13 14 12 10 11 12 12 8 6 7 7 7 9 11 13 13 12 12 12 14 14 14 15 14 15 16 18
Wind_Direction
300 303 308 311 313 312 313 314 312 312 314 319 316 321 322 324 327 328 326 325 325 327 333 339 340 340 338 330 329 333 329 331 342 342 342 342 344 344
296 299 305 310 312 310 312 312 312 310 310 319 319 320 321 322 326 327 328 328 327 327 330 331 333 335 338 331 331 329 327 332 341 340 340 343 343 339
292 295 301 309 307 310 311 310 309 311 309 313 316 318 318 318 323 329 329 327 322 319 323 326 324 317 333 337 335 333 333 331 337 340 340 339 341 341
283 293 302 306 306 308 308 306 305 307 309 309 314 315 316 320 322 324 324 322 314 310 319 310 323 326 335 340 348 347 342 341 338 334 334 338 344 345
288 293 300 302 305 306 308 307 306 308 309 310 310 315 315 319 318 319 315 316 311 304 304 308 302 335 342 346 348 350 353 356 349 340 333 333 338 337
285 291 296 300 302 305 307 308 309 308 307 306 306 308 311 316 313 310 308 312 311 307 300 313 349 334 335 348 351 359 1 359 355 347 340 335 333 329
288 288 294 295 302 306 306 306 306 305 305 303 304 305 308 311 310 309 306 305 312 307 308 303 310 319 339 351 359 360 1 357 352 349 344 340 337 337
285 289 296 298 304 307 308 307 308 307 306 306 304 304 308 308 307 301 292 300 301 301 283 289 296 312 332 346 6 9 0 356 352 347 342 335 334 336
281 290 294 302 306 310 309 311 312 316 314 311 308 308 308 308 306 297 283 289 285 287 275 278 295 318 325 350 4 357 353 352 350 344 337 334 335 338
283 288 295 303 306 309 310 311 313 312 310 313 311 310 309 309 302 288 285 282 282 281 269 288 291 303 322 342 356 360 359 352 348 345 343 339 339 341
288 290 299 310 314 313 310 309 313 316 326 323 318 313 308 302 298 291 276 268 265 267 274 283 288 297 308 324 340 357 354 347 344 344 342 341 345 351
288 295 305 319 318 315 312 312 320 325 325 324 325 324 316 312 302 282 268 262 260 273 269 276 276 289 297 307 324 337 341 342 347 345 344 345 349 351
288 296 310 318 315 309 325 326 325 330 329 329 332 328 313 315 296 284 273 263 265 273 272 271 272 281 298 318 313 320 335 340 343 340 337 344 349 351
292 308 312 313 312 313 330 331 333 331 331 334 338 316 318 311 295 288 284 281 278 280 278 274 277 284 303 319 328 330 333 339 341 339 337 337 339 350
306 313 313 312 322 325 339 348 342 332 329 332 329 321 313 313 301 287 297 303 304 301 278 270 296 299 314 326 338 344 345 334 338 338 334 336 340 338
341 319 310 321 336 351 2 2 345 341 331 331 325 335 313 303 295 280 273 276 280 275 286 295 314 312 318 333 337 2 342 334 336 334 334 331 330 332
323 304 316 345 19 9 36 19 6 351 334 329 333 337 315 298 281 276 273 266 261 266 282 303 325 341 339 343 339 355 350 336 332 332 331 339 328 332
302 298 326 0 31 54 53 38 7 347 339 318 333 339 317 290 275 266 265 261 264 275 306 315 333 341 332 335 346 359 341 332 324 329 340 341 332 328
290 313 321 6 67 81 62 47 8 345 345 308 323 346 296 272 262 254 254 261 272 296 312 313 320 329 335 334 333 333 337 325 325 341 343 333 327 316
295 313 330 25 65 79 63 52 15 359 334 308 306 306 285 268 258 251 256 273 299 301 308 307 319 326 332 338 346 333 326 328 325 346 347 320 315 303
296 311 338 30 68 75 54 57 19 347 312 292 289 288 286 278 271 264 277 297 305 306 316 329 326 338 354 347 342 324 317 305 314 333 334 327 333 329
299 312 355 45 80 73 64 51 359 328 300 285 284 285 278 274 274 275 285 312 303 315 332 341 343 346 337 328 338 318 311 303 299 302 321 329 335 333
300 315 3 55 77 59 47 42 2 320 293 282 277 285 288 275 271 267 282 307 322 338 358 346 341 332 332 336 333 316 303 308 310 311 325 325 323 319